CW0566 Weather Reports


time (UTC)temp
C
wind
direction
speed
KPH
gust
KPH
rain 1hr
cm
rain 24hr
cm
rain mn
cm
humidity
%
barometer
mb
20260507000017 20 0 1.6 6.4 0.00 0.00 0.00 81 1008.1
20260506235038 20 270 6.4 14.5 0.00 0.00 0.00 81 1008.1
20260506234017 20 315 4.8 12.9 0.00 0.00 0.00 80 1008.1
20260506233038 20 315 4.8 14.5 0.00 0.00 0.00 79 1007.9
20260506232037 20 315 3.2 9.7 0.00 0.00 0.00 79 1007.9
20260506231017 20 315 6.4 17.7 0.00 0.00 0.00 78 1008.0
20260506230017 21 270 4.8 14.5 0.00 0.00 0.00 78 1008.0
20260506225017 21 293 8.0 16.1 0.00 0.00 0.00 77 1008.0
20260506224017 21 293 6.4 16.1 0.00 0.00 0.00 77 1008.0
20260506223017 21 293 8.0 22.5 0.00 0.00 0.00 77 1007.8
20260506222017 21 315 6.4 16.1 0.00 0.00 0.00 76 1007.7
20260506221016 22 270 8.0 16.1 0.00 0.00 0.00 76 1007.8
20260506220017 21 315 8.0 22.5 0.00 0.00 0.00 77 1007.8
20260506215017 21 270 8.0 16.1 0.00 0.00 0.00 78 1007.7
20260506214017 21 270 8.0 19.3 0.00 0.00 0.00 78 1007.7
20260506213037 21 315 6.4 14.5 0.00 0.00 0.00 78 1007.8
20260506212038 21 270 9.7 17.7 0.00 0.00 0.00 78 1007.7
20260506211037 21 315 9.7 17.7 0.00 0.00 0.00 79 1007.5
20260506210017 20 315 8.0 16.1 0.00 0.00 0.00 79 1007.6
20260506205016 20 270 8.0 24.1 0.00 0.00 0.00 79 1007.5
20260506204017 20 315 11.3 24.1 0.00 0.00 0.00 78 1007.4
20260506203038 20 270 11.3 25.7 0.00 0.00 0.00 78 1007.3
20260506202016 20 270 8.0 17.7 0.00 0.00 0.00 78 1007.2
20260506201037 20 315 12.9 24.1 0.00 0.00 0.00 78 1007.3
20260506200017 20 315 12.9 27.4 0.00 0.00 0.00 78 1007.6
20260506195017 20 315 11.3 32.2 0.00 0.00 0.00 79 1007.6
20260506194016 20 270 9.7 22.5 0.00 0.00 0.00 79 1007.7
20260506193016 20 315 12.9 27.4 0.00 0.00 0.00 79 1007.9
20260506192017 20 293 12.9 30.6 0.00 0.00 0.00 80 1008.1
20260506191016 19 293 8.0 20.9 0.00 0.00 0.00 81 1008.1
20260506190017 19 293 12.9 33.8 0.00 0.00 0.00 81 1008.2
20260506185036 19 293 6.4 19.3 0.00 0.00 0.00 82 1008.2
20260506184016 18 315 9.7 25.7 0.00 0.00 0.00 82 1008.3
20260506183018 18 293 8.0 17.7 0.00 0.00 0.00 82 1008.3
20260506182016 18 270 11.3 25.7 0.00 0.00 0.00 83 1008.6
20260506181016 18 270 9.7 29.0 0.00 0.00 0.00 83 1008.4
20260506180016 18 270 8.0 17.7 0.00 0.00 0.00 84 1008.5
20260506175016 18 315 8.0 19.3 0.00 0.00 0.00 83 1008.7
20260506174016 18 293 6.4 16.1 0.00 0.00 0.00 81 1008.6
20260506173036 18 293 4.8 14.5 0.00 0.00 0.00 81 1008.5
20260506172057 18 270 9.7 25.7 0.00 0.00 0.00 80 1008.5
20260506171036 18 270 6.4 32.2 0.00 0.00 0.00 81 1008.8
20260506170016 19 270 8.0 19.3 0.00 0.00 0.00 80 1008.8
20260506165036 19 270 8.0 20.9 0.00 0.00 0.00 80 1008.9
20260506164017 19 315 3.2 12.9 0.00 0.00 0.00 82 1008.9
20260506163016 19 270 4.8 12.9 0.00 0.00 0.00 81 1008.9
20260506162016 19 270 6.4 20.9 0.00 0.00 0.00 79 1009.2
20260506161016 20 293 8.0 19.3 0.00 0.00 0.00 76 1009.6
20260506160139 20 293 8.0 14.5 0.00 0.00 0.00 74 1010.0
20260506155016 20 293 8.0 20.9 0.00 0.00 0.00 73 1009.9
20260506154016 20 293 9.7 17.7 0.00 0.00 0.00 72 1009.9
20260506153017 20 270 11.3 25.7 0.00 0.00 0.00 71 1009.7
20260506152016 20 293 8.0 27.4 0.00 0.00 0.00 71 1009.9
20260506151016 20 293 8.0 17.7 0.00 0.00 0.00 70 1010.0
20260506150016 21 270 4.8 19.3 0.00 0.00 0.00 69 1009.8
20260506145016 21 338 4.8 16.1 0.00 0.00 0.00 69 1009.9
20260506144016 21 293 6.4 20.9 0.00 0.00 0.00 70 1010.1
20260506143016 20 270 4.8 19.3 0.00 0.00 0.00 70 1010.1
20260506142016 20 270 6.4 16.1 0.00 0.00 0.00 69 1010.1
20260506141016 21 338 6.4 16.1 0.00 0.00 0.00 68 1010.1
20260506140016 21 315 8.0 17.7 0.00 0.00 0.00 68 1010.0
20260506135016 21 270 4.8 17.7 0.00 0.00 0.00 69 1009.9
20260506134017 20 293 9.7 19.3 0.00 0.00 0.00 69 1009.9
20260506133016 20 315 8.0 19.3 0.00 0.00 0.00 70 1009.8
20260506132036 20 270 6.4 19.3 0.00 0.00 0.00 71 1010.0
20260506131016 20 293 6.4 22.5 0.00 0.00 0.00 71 1010.1
20260506130015 20 293 6.4 19.3 0.00 0.00 0.00 71 1010.2
20260506125036 20 270 9.7 19.3 0.00 0.00 0.00 72 1010.3
20260506124016 20 270 6.4 19.3 0.00 0.00 0.00 73 1010.2
20260506123016 19 270 9.7 24.1 0.00 0.00 0.00 74 1010.2
20260506122015 19 293 6.4 17.7 0.00 0.00 0.00 74 1010.2
20260506121016 19 270 6.4 16.1 0.00 0.00 0.00 75 1010.1
20260506120015 19 270 6.4 17.7 0.00 0.00 0.00 76 1010.0
20260506115016 18 270 6.4 25.7 0.00 0.00 0.00 77 1010.1
20260506114016 18 315 6.4 16.1 0.00 0.00 0.00 76 1010.0
20260506113015 18 293 3.2 12.9 0.00 0.00 0.00 78 1010.2
20260506112036 18 293 4.8 12.9 0.00 0.00 0.00 79 1010.0
20260506111015 17 270 4.8 12.9 0.00 0.00 0.00 80 1010.1
20260506110015 17 270 8.0 16.1 0.00 0.00 0.00 80 1010.3
20260506105015 17 270 4.8 14.5 0.00 0.00 0.00 81 1010.2
20260506104016 17 293 4.8 14.5 0.00 0.00 0.00 82 1010.1
20260506103015 16 248 4.8 14.5 0.00 0.00 0.00 82 1010.1
20260506102015 16 270 4.8 14.5 0.00 0.00 0.00 82 1010.0
20260506101015 17 315 4.8 12.9 0.00 0.00 0.00 83 1010.1
20260506100017 17 180 4.8 14.5 0.00 0.00 0.00 83 1010.1
20260506095017 17 270 6.4 16.1 0.00 0.00 0.00 83 1010.1
20260506094038 17 293 4.8 12.9 0.00 0.00 0.00 82 1009.9
20260506093017 17 293 3.2 9.7 0.00 0.00 0.00 82 1009.8
20260506092018 17 315 3.2 12.9 0.00 0.00 0.00 82 1009.8
20260506091038 17 248 4.8 19.3 0.00 0.00 0.00 82 1009.8
20260506090017 17 270 3.2 9.7 0.00 0.00 0.00 82 1010.0
20260506085038 17 158 4.8 11.3 0.00 0.00 0.00 82 1009.9
20260506084038 17 270 6.4 19.3 0.00 0.00 0.00 82 1010.0
20260506083017 17 270 4.8 12.9 0.00 0.00 0.00 82 1010.1
20260506082056 17 293 4.8 17.7 0.00 0.00 0.00 83 1010.3
20260506081057 17 270 4.8 11.3 0.00 0.00 0.00 82 1010.3
20260506073017 17 293 3.2 12.9 0.00 0.00 0.00 82 1010.3
20260506072018 17 315 3.2 12.9 0.00 0.00 0.00 81 1010.3
20260506071017 17 270 3.2 11.3 0.00 0.00 0.00 81 1010.4
20260506062038 18 293 3.2 12.9 0.00 0.00 0.00 80 1010.4
20260506061017 18 248 3.2 11.3 0.00 0.00 0.00 80 1010.3
20260506051016 18 293 3.2 9.7 0.00 0.00 0.00 78 1010.9
20260506045037 18 248 4.8 16.1 0.00 0.00 0.00 78 1011.0
20260506044017 18 293 4.8 16.1 0.00 0.00 0.00 78 1011.1
20260506043017 18 225 3.2 12.9 0.00 0.00 0.00 77 1011.1
20260506042017 18 225 3.2 9.7 0.00 0.00 0.00 77 1011.1
20260506041017 18 293 4.8 14.5 0.00 0.00 0.00 76 1011.0
20260506040037 18 293 4.8 14.5 0.00 0.00 0.00 76 1011.0
20260506035017 18 248 4.8 14.5 0.00 0.00 0.00 76 1011.1
20260506034017 18 293 4.8 12.9 0.00 0.00 0.00 75 1011.0
20260506033018 19 248 4.8 19.3 0.00 0.00 0.00 75 1011.0
20260506032058 19 270 3.2 12.9 0.00 0.00 0.00 74 1011.1
20260506031018 19 270 4.8 12.9 0.00 0.00 0.00 73 1011.0
20260506030038 19 293 4.8 14.5 0.00 0.00 0.00 72 1011.1
20260506025017 20 338 4.8 12.9 0.00 0.00 0.00 71 1011.2
20260506024017 20 293 4.8 16.1 0.00 0.00 0.00 70 1011.3
20260506023017 20 293 3.2 9.7 0.00 0.00 0.00 69 1011.3
20260506022017 20 225 6.4 17.7 0.00 0.00 0.00 68 1011.1
20260506021018 20 293 4.8 17.7 0.00 0.00 0.00 67 1011.0
20260506020017 20 270 6.4 19.3 0.00 0.00 0.00 67 1011.0
20260506015017 20 270 6.4 17.7 0.00 0.00 0.00 66 1010.8
20260506014017 20 270 4.8 16.1 0.00 0.00 0.00 66 1010.7
20260506013018 20 270 4.8 12.9 0.00 0.00 0.00 66 1010.6
20260506012017 20 270 4.8 12.9 0.00 0.00 0.00 66 1010.6
20260506011018 21 180 3.2 12.9 0.00 0.00 0.00 65 1010.6
20260506010038 21 225 1.6 9.7 0.00 0.00 0.00 64 1010.5
20260506005017 21 270 1.6 8.0 0.00 0.00 0.00 63 1010.4
20260506004017 21 225 3.2 12.9 0.00 0.00 0.00 62 1010.3
20260506003017 21 315 3.2 19.3 0.00 0.00 0.00 60 1010.2
20260506002017 22 315 3.2 9.7 0.00 0.00 0.00 57 1010.1
20260506001017 22 293 3.2 16.1 0.00 0.00 0.00 56 1010.0